[[{"header":{"parameterUnit":"m.s-1","parameterCategory":1,"la1":30.2991,"la2":30.254,"lo1":-89.0895,"lo2":-89.0444,"dy":0.0017,"dx":0.0017,"nx":28,"ny":28,"refTime":"2024-03-26T21:00:00:Z","depth":0,"parameterNumber":2,"parameterNumberName":"U-component_of_WINDS"},"data":[0,0,0,0,0,0,0,0,0,0,0,0,0,0,0,0,0,0,0,0,0,0,0,0,0,0,0,0,0,0,0,0,0,0,0,0,0,0,0,0,0,0,0,0,0,0,0,0,0,0,0,0,0,0,0,0,0,0,1.2229,1.2229,0,1.2233,1.2234,1.2234,1.2209,1.2208,1.2208,1.2207,1.221,1.2211,1.2212,0,0,0,0,0,0,0,0,0,0,0,0,0,1.2199,1.2199,1.2229,1.2229,1.2229,1.2233,1.2234,1.2234,1.2209,1.2208,1.2208,1.2207,1.221,1.2211,1.2212,0,0,0,0,0,0,0,0,0,0,0,0,0,1.2208,1.2199,1.2229,1.2217,1.2217,1.2233,1.2234,1.2234,1.2209,1.2208,1.2207,1.2206,1.221,1.2211,1.2212,1.224,0,0,1.2216,1.2216,0,0,0,0,0,0,0,0,1.2208,1.2209,1.2219,1.2218,1.2217,1.222,1.2224,1.2236,1.221,1.2212,1.2207,1.2206,1.2214,1.2215,1.2218,1.224,1.224,1.2216,1.2216,1.2217,1.2217,0,0,0,0,0,0,0,1.2207,1.2209,1.2231,1.2219,1.2218,1.2212,1.2212,1.2226,1.2219,1.2212,1.221,1.2211,1.2214,1.2217,1.2218,1.224,1.2216,1.2217,1.2217,1.2218,1.2286,1.2287,0,0,0,0,0,0,1.2208,1.2209,1.2231,1.2231,1.221,1.2213,1.2214,1.222,1.2219,1.2218,1.2212,1.221,1.2216,1.2217,1.2218,1.2251,1.2217,1.2218,1.2218,1.2285,1.2286,1.2287,0,0,0,0,0,0,1.2208,1.221,1.223,1.2219,1.2221,1.2215,1.2222,1.2221,1.2224,1.2219,1.2217,1.2217,1.2215,1.2216,1.2235,1.2251,1.2218,1.2219,1.2284,1.2285,1.2287,1.2317,0,0,0,0,0,0,1.2207,1.221,1.2221,1.222,1.2222,1.2247,1.2223,1.2221,1.2226,1.2224,1.2223,1.2222,1.2214,1.2233,1.2236,1.2252,1.222,1.2282,1.2284,1.2286,1.2314,1.2319,1.2323,0,0,0,0,0,1.2206,1.2228,1.2221,1.2224,1.2235,1.2248,1.225,1.2241,1.2228,1.2238,1.2235,1.2222,1.2249,1.2235,1.2238,1.2254,1.2281,1.2284,1.2286,1.2312,1.2318,1.2323,0,0,0,0,0,0,1.2231,1.2228,1.222,1.2243,1.2246,1.2244,1.2257,1.2247,1.2254,1.2251,1.2239,1.2239,1.226,1.2259,1.2244,1.2282,1.2262,1.2266,1.2281,1.2287,1.2292,1.2291,1.2221,0,0,0,0,0,1.2239,1.225,1.2247,1.2268,1.227,1.2264,1.2269,1.2262,1.2264,1.2265,1.2263,1.2266,1.2275,1.2281,1.2289,1.2314,1.2314,1.2327,1.2331,1.2335,1.2338,1.2352,1.2358,1.2296,1.2296,1.2296,0,0,1.2256,1.2256,1.2264,1.2273,1.2274,1.2286,1.2265,1.2278,1.2286,1.2267,1.2284,1.2283,1.2285,1.2308,1.2317,1.2308,1.2355,1.2338,1.2341,1.2342,1.2355,1.2361,1.2366,1.2298,1.2297,1.2297,0,0,1.2293,1.2294,1.2312,1.2314,1.2317,1.2313,1.2317,1.2317,1.2316,1.2333,1.2319,1.2329,1.2345,1.2347,1.235,1.239,1.2378,1.2392,1.2416,1.243,1.2435,1.2439,1.2453,1.2459,1.2395,1.2395,1.2396,0,1.2314,1.2331,1.2322,1.2337,1.2341,1.2325,1.2343,1.2346,1.2351,1.2354,1.2344,1.2363,1.2364,1.2386,1.2396,1.2399,1.2404,1.2392,1.2435,1.2439,1.2443,1.2456,1.2462,1.2397,1.2397,1.2397,1.2397,0,1.2357,1.2369,1.2383,1.2389,1.2396,1.2412,1.2405,1.2412,1.2405,1.2402,1.242,1.242,1.2428,1.2433,1.2426,1.2455,1.2449,1.2437,1.2417,1.2451,1.2463,1.2468,1.24,1.2399,1.2399,1.2398,0,0,1.2408,1.2411,1.2416,1.2419,1.2422,1.2431,1.2446,1.2455,1.2462,1.2466,1.2479,1.2493,1.2482,1.2486,1.2479,1.2491,1.2522,1.2477,1.2477,1.2485,1.2555,1.2564,1.257,1.2515,1.2516,1.2517,1.2555,0,1.2445,1.2472,1.2465,1.2492,1.2504,1.2489,1.2503,1.2506,1.2504,1.2513,1.251,1.2521,1.2505,1.2507,1.2519,1.2516,1.2536,1.2513,1.2526,1.2527,1.2526,1.2577,1.2586,1.2622,1.256,1.256,1.2561,0,1.2491,1.2498,1.2526,1.2528,1.2533,1.2545,1.2553,1.2562,1.2565,1.2563,1.2568,1.2559,1.2574,1.2555,1.2576,1.2561,1.2566,1.2565,1.2567,1.2567,1.2546,1.2579,1.2634,1.2639,1.2569,1.2568,1.2567,0,1.2526,1.2543,1.2562,1.2565,1.2567,1.2577,1.2578,1.258,1.2586,1.2593,1.2597,1.2605,1.2609,1.2616,1.2609,1.2596,1.2631,1.2611,1.2629,1.263,1.2637,1.2637,1.2694,1.2641,1.2641,1.2641,1.2641,0,1.2567,1.2585,1.2578,1.259,1.261,1.2602,1.2621,1.2621,1.2624,1.2635,1.2623,1.2634,1.2624,1.2635,1.2629,1.2648,1.265,1.2648,1.2647,1.2649,1.2649,1.2652,1.2649,1.2642,1.2642,1.2641,1.2641,0,1.2609,1.2606,1.2626,1.2627,1.2628,1.2642,1.2643,1.2654,1.2651,1.2666,1.2669,1.2665,1.2676,1.267,1.2682,1.2678,1.2702,1.2697,1.2702,1.27,1.2719,1.2717,1.2779,1.2787,1.2729,1.273,1.273,0,1.2636,1.265,1.2653,1.266,1.2662,1.2674,1.268,1.2673,1.268,1.2686,1.2696,1.2707,1.2715,1.2733,1.2731,1.274,1.2735,1.2756,1.2736,1.2739,1.2735,1.2735,1.2736,1.276,1.2761,1.2761,1.2762,0,1.2683,1.2681,1.2691,1.2701,1.2709,1.2716,1.2721,1.2728,1.2721,1.2729,1.2741,1.2748,1.276,1.2771,1.2779,1.278,1.277,1.2768,1.2773,1.2776,1.2777,1.2777,1.2712,1.2767,1.2766,1.2766,1.2766,1.2765,1.2718,1.273,1.2735,1.2746,1.275,1.2756,1.2767,1.2766,1.2776,1.2786,1.2782,1.2796,1.2799,1.2809,1.2812,1.2822,1.2814,1.282,1.2822,1.2824,1.2826,1.2776,1.2824,1.2823,1.2823,1.2823,1.2823,0,1.2765,1.2768,1.2779,1.2788,1.2797,1.2788,1.2794,1.2802,1.2815,1.282,1.2828,1.2843,1.2853,1.2852,1.2862,1.2871,1.2866,1.2873,1.2872,1.2873,1.2833,1.2828,1.2877,1.2877,1.2877,1.2877,1.2877,1.2877,1.2791,1.2811,1.2809,1.2831,1.2833,1.2847,1.2852,1.2857,1.2861,1.2878,1.2887,1.2886,1.2889,1.2899,1.2908,1.2907,1.2911,1.292,1.2918,1.2881,1.2876,1.2871,1.2866,1.2921,1.2921,1.2957,1.2957,1.2957]},{"header":{"parameterUnit":"m.s-1","parameterCategory":1,"la1":30.2991,"la2":30.254,"lo1":-89.0895,"lo2":-89.0444,"dy":0.0017,"dx":0.0017,"nx":28,"ny":28,"refTime":"2024-03-26T21:00:00:Z","depth":0,"parameterNumber":3,"parameterNumberName":"V-component_of_WINDS"},"data":[0,0,0,0,0,0,0,0,0,0,0,0,0,0,0,0,0,0,0,0,0,0,0,0,0,0,0,0,0,0,0,0,0,0,0,0,0,0,0,0,0,0,0,0,0,0,0,0,0,0,0,0,0,0,0,0,0,0,-4.538,-4.5381,0,-4.5385,-4.5385,-4.5385,-4.5317,-4.5315,-4.5314,-4.5312,-4.5314,-4.5316,-4.5318,0,0,0,0,0,0,0,0,0,0,0,0,0,-4.5314,-4.5315,-4.538,-4.5381,-4.5381,-4.5385,-4.5385,-4.5385,-4.5318,-4.5315,-4.5313,-4.5311,-4.5314,-4.5316,-4.5318,0,0,0,0,0,0,0,0,0,0,0,0,0,-4.5333,-4.5316,-4.538,-4.5348,-4.5345,-4.5384,-4.5385,-4.5385,-4.5318,-4.5315,-4.5313,-4.531,-4.5313,-4.5316,-4.5318,-4.5389,0,0,-4.5326,-4.5327,0,0,0,0,0,0,0,0,-4.5332,-4.5335,-4.5352,-4.535,-4.5347,-4.5348,-4.5362,-4.5386,-4.5319,-4.5328,-4.5312,-4.5309,-4.5328,-4.5329,-4.5335,-4.5389,-4.5389,-4.5327,-4.5328,-4.5329,-4.533,0,0,0,0,0,0,0,-4.5331,-4.5335,-4.5382,-4.5353,-4.5349,-4.5332,-4.5332,-4.5366,-4.5343,-4.5327,-4.5322,-4.5324,-4.5325,-4.5333,-4.5335,-4.5389,-4.5326,-4.5329,-4.533,-4.5331,-4.5503,-4.5506,0,0,0,0,0,0,-4.5334,-4.5334,-4.5382,-4.5382,-4.5333,-4.5336,-4.5335,-4.535,-4.5342,-4.5339,-4.5326,-4.5321,-4.533,-4.5332,-4.5335,-4.5418,-4.5329,-4.5332,-4.5333,-4.55,-4.5504,-4.5507,0,0,0,0,0,0,-4.5333,-4.5339,-4.5382,-4.5357,-4.5361,-4.534,-4.5357,-4.5352,-4.5359,-4.5342,-4.5337,-4.5338,-4.5328,-4.5331,-4.5377,-4.5417,-4.5333,-4.5335,-4.5496,-4.5501,-4.5505,-4.5585,0,0,0,0,0,0,-4.5331,-4.5339,-4.5366,-4.5358,-4.5363,-4.5424,-4.5359,-4.5354,-4.5364,-4.5357,-4.5352,-4.5348,-4.5326,-4.5373,-4.5379,-4.5419,-4.5337,-4.5493,-4.5498,-4.5504,-4.5579,-4.5592,-4.5603,0,0,0,0,0,-4.5329,-4.5387,-4.5367,-4.5373,-4.5396,-4.5426,-4.5429,-4.5402,-4.5368,-4.5394,-4.5383,-4.5349,-4.5412,-4.5378,-4.5385,-4.5426,-4.549,-4.5497,-4.5503,-4.5573,-4.5589,-4.5603,0,0,0,0,0,0,-4.5399,-4.5386,-4.5363,-4.5421,-4.5425,-4.5415,-4.5447,-4.542,-4.5434,-4.5426,-4.5392,-4.5392,-4.5443,-4.5439,-4.5402,-4.5495,-4.5445,-4.5453,-4.5496,-4.5511,-4.5523,-4.5523,-4.534,0,0,0,0,0,-4.5421,-4.5448,-4.5434,-4.5486,-4.549,-4.5469,-4.5481,-4.546,-4.5463,-4.5465,-4.5457,-4.5461,-4.5482,-4.5496,-4.5514,-4.5578,-4.5576,-4.561,-4.5622,-4.5632,-4.564,-4.5674,-4.5689,-4.5529,-4.5529,-4.5528,0,0,-4.5467,-4.5463,-4.5482,-4.55,-4.5501,-4.5529,-4.5471,-4.5502,-4.5523,-4.5469,-4.5512,-4.5507,-4.5509,-4.5564,-4.5588,-4.5563,-4.5684,-4.5641,-4.5649,-4.5651,-4.5683,-4.5698,-4.5711,-4.5533,-4.5532,-4.5532,0,0,-4.5565,-4.5565,-4.5609,-4.5612,-4.5615,-4.56,-4.5611,-4.5605,-4.56,-4.5643,-4.5604,-4.5627,-4.5664,-4.5667,-4.5674,-4.5776,-4.5744,-4.5782,-4.5845,-4.588,-4.5892,-4.5903,-4.594,-4.5954,-4.579,-4.579,-4.579,0,-4.5622,-4.5663,-4.5635,-4.567,-4.568,-4.5634,-4.5678,-4.5682,-4.569,-4.5698,-4.5669,-4.5715,-4.5713,-4.577,-4.5795,-4.5801,-4.5813,-4.5783,-4.5893,-4.5904,-4.5914,-4.5949,-4.5962,-4.5795,-4.5794,-4.5794,-4.5793,0,-4.5733,-4.5762,-4.5797,-4.5808,-4.5822,-4.5861,-4.5839,-4.5856,-4.5835,-4.5824,-4.5869,-4.5865,-4.5882,-4.5894,-4.5873,-4.5948,-4.5932,-4.5899,-4.5847,-4.5934,-4.5966,-4.5979,-4.5802,-4.58,-4.5798,-4.5797,0,0,-4.5874,-4.587,-4.5884,-4.5889,-4.5889,-4.5911,-4.5949,-4.5967,-4.5983,-4.599,-4.6021,-4.6054,-4.6024,-4.6032,-4.6011,-4.6041,-4.6123,-4.6004,-4.6003,-4.6027,-4.6206,-4.6232,-4.6248,-4.6103,-4.6105,-4.6107,-4.6206,0,-4.597,-4.6035,-4.6012,-4.6078,-4.6105,-4.6063,-4.6096,-4.61,-4.6091,-4.6113,-4.6102,-4.6127,-4.6085,-4.6089,-4.6117,-4.6107,-4.6159,-4.61,-4.6131,-4.6133,-4.6132,-4.6264,-4.6291,-4.6385,-4.6219,-4.6221,-4.6222,0,-4.609,-4.6105,-4.6174,-4.6172,-4.6182,-4.6213,-4.6228,-4.6249,-4.6253,-4.6245,-4.6254,-4.6228,-4.6265,-4.6214,-4.6265,-4.6225,-4.6237,-4.6234,-4.6237,-4.6239,-4.6183,-4.627,-4.6414,-4.6428,-4.6242,-4.624,-4.6239,0,-4.6187,-4.6224,-4.627,-4.6276,-4.6274,-4.6297,-4.6297,-4.6298,-4.6311,-4.6324,-4.6332,-4.6349,-4.6359,-4.6373,-4.6352,-4.6316,-4.6406,-4.6353,-4.64,-4.6401,-4.642,-4.642,-4.6569,-4.6428,-4.6428,-4.6427,-4.6427,0,-4.6297,-4.6341,-4.6314,-4.6343,-4.6392,-4.6365,-4.6414,-4.6409,-4.6411,-4.6438,-4.6402,-4.6429,-4.6399,-4.6422,-4.6406,-4.6451,-4.6455,-4.645,-4.6445,-4.6453,-4.6454,-4.646,-4.6453,-4.6431,-4.643,-4.643,-4.6429,0,-4.6413,-4.6396,-4.6445,-4.644,-4.644,-4.6476,-4.6472,-4.6498,-4.6487,-4.6522,-4.6529,-4.6512,-4.6538,-4.6518,-4.6543,-4.6532,-4.6592,-4.6578,-4.6591,-4.6588,-4.6636,-4.6632,-4.6794,-4.6814,-4.6661,-4.6662,-4.6663,0,-4.6484,-4.6517,-4.6517,-4.6533,-4.6536,-4.6562,-4.6576,-4.6551,-4.6566,-4.6574,-4.66,-4.6623,-4.664,-4.6684,-4.6674,-4.6693,-4.6679,-4.6735,-4.6682,-4.6689,-4.6681,-4.6679,-4.6682,-4.6745,-4.6747,-4.6749,-4.675,0,-4.6612,-4.6603,-4.6624,-4.6643,-4.6661,-4.6674,-4.6684,-4.67,-4.6674,-4.6694,-4.672,-4.6734,-4.6761,-4.6784,-4.68,-4.68,-4.6771,-4.6767,-4.6779,-4.6788,-4.6794,-4.6792,-4.6621,-4.6763,-4.6762,-4.6761,-4.676,-4.676,-4.6708,-4.6736,-4.6741,-4.6766,-4.6772,-4.6783,-4.6808,-4.6801,-4.6824,-4.6844,-4.6828,-4.686,-4.6865,-4.6884,-4.6887,-4.6912,-4.6889,-4.6906,-4.691,-4.6915,-4.6922,-4.6791,-4.6915,-4.6914,-4.6914,-4.6914,-4.6913,0,-4.6834,-4.6836,-4.6859,-4.6876,-4.6896,-4.6869,-4.6879,-4.6898,-4.6927,-4.6934,-4.6953,-4.6984,-4.7007,-4.7,-4.702,-4.7042,-4.7029,-4.7048,-4.7046,-4.7047,-4.6941,-4.6929,-4.7058,-4.7058,-4.7058,-4.7058,-4.7058,-4.7058,-4.6903,-4.695,-4.6942,-4.6991,-4.6992,-4.7024,-4.7033,-4.7043,-4.7049,-4.7086,-4.7106,-4.7101,-4.7103,-4.7123,-4.7144,-4.7141,-4.715,-4.7174,-4.7167,-4.7068,-4.7054,-4.704,-4.7029,-4.7176,-4.7177,-4.727,-4.7271,-4.7271]}]]